[[{"header":{"parameterUnit":"m.s-1","parameterCategory":1,"la1":30.2991,"la2":30.254,"lo1":-89.0895,"lo2":-89.0444,"dy":0.0017,"dx":0.0017,"nx":28,"ny":28,"refTime":"2025-07-15T21:00:00:Z","depth":0,"parameterNumber":2,"parameterNumberName":"U-component_of_WINDS"},"data":[0,0,0,0,0,0,0,0,0,0,0,0,0,0,0,0,0,0,0,0,0,0,0,0,0,0,0,0,0,0,0,0,0,0,0,0,0,0,0,0,0,0,0,0,0,0,0,0,0,0,0,0,0,0,0,0,0,0,-1.576,-1.5761,0,-1.5797,-1.5797,-1.5798,-1.5816,-1.5816,-1.5816,-1.5816,-1.5856,-1.5857,-1.5858,0,0,0,0,0,0,0,0,0,0,0,0,0,-1.571,-1.5711,-1.576,-1.5761,-1.5761,-1.5797,-1.5797,-1.5798,-1.5816,-1.5816,-1.5816,-1.5816,-1.5855,-1.5857,-1.5858,0,0,0,0,0,0,0,0,0,0,0,0,0,-1.5738,-1.5711,-1.576,-1.5775,-1.5776,-1.5797,-1.5797,-1.5798,-1.5816,-1.5816,-1.5816,-1.5816,-1.5855,-1.5857,-1.5858,-1.5868,0,0,-1.5863,-1.5864,0,0,0,0,0,0,0,0,-1.5736,-1.5739,-1.5772,-1.5774,-1.5775,-1.5802,-1.5794,-1.5821,-1.5816,-1.5801,-1.5816,-1.5816,-1.5838,-1.5841,-1.5848,-1.5869,-1.5871,-1.5863,-1.5864,-1.5865,-1.5865,0,0,0,0,0,0,0,-1.5734,-1.5738,-1.5775,-1.5772,-1.5775,-1.578,-1.5784,-1.5799,-1.5819,-1.5802,-1.5804,-1.5808,-1.5839,-1.5846,-1.5849,-1.5872,-1.5863,-1.5864,-1.5865,-1.5866,-1.5906,-1.5906,0,0,0,0,0,0,-1.5729,-1.5736,-1.5774,-1.5776,-1.5755,-1.5781,-1.5786,-1.5793,-1.5819,-1.5823,-1.5808,-1.5808,-1.5844,-1.5847,-1.585,-1.5865,-1.5865,-1.5866,-1.5867,-1.5906,-1.5906,-1.5906,0,0,0,0,0,0,-1.5728,-1.5732,-1.5772,-1.5756,-1.5762,-1.5782,-1.5791,-1.5794,-1.5801,-1.5823,-1.5827,-1.5811,-1.5844,-1.5848,-1.5864,-1.5866,-1.5867,-1.5868,-1.5906,-1.5906,-1.5906,-1.5892,0,0,0,0,0,0,-1.5727,-1.5732,-1.5735,-1.5756,-1.5763,-1.5783,-1.5791,-1.5795,-1.5804,-1.5805,-1.5827,-1.5831,-1.5844,-1.5861,-1.5865,-1.5868,-1.587,-1.5905,-1.5906,-1.5906,-1.5892,-1.5892,-1.5891,0,0,0,0,0,-1.5725,-1.5729,-1.5735,-1.5739,-1.5766,-1.5783,-1.5787,-1.5801,-1.5804,-1.5808,-1.5822,-1.583,-1.5865,-1.5863,-1.5867,-1.5871,-1.5905,-1.5906,-1.5906,-1.5892,-1.5892,-1.5891,0,0,0,0,0,0,-1.5707,-1.5732,-1.5739,-1.575,-1.5764,-1.5786,-1.5791,-1.58,-1.5814,-1.5815,-1.5833,-1.5838,-1.5852,-1.5863,-1.586,-1.5883,-1.5886,-1.5888,-1.5875,-1.5874,-1.5873,-1.587,-1.5871,0,0,0,0,0,-1.5705,-1.5716,-1.5737,-1.5745,-1.5752,-1.5771,-1.5778,-1.5788,-1.5804,-1.5811,-1.5826,-1.5842,-1.5857,-1.5866,-1.5881,-1.5894,-1.5901,-1.5899,-1.5899,-1.5898,-1.5899,-1.5909,-1.5909,-1.5907,-1.5907,-1.5907,0,0,-1.57,-1.5715,-1.572,-1.5742,-1.5755,-1.5767,-1.5775,-1.5787,-1.5797,-1.5813,-1.5828,-1.584,-1.586,-1.5875,-1.5882,-1.5884,-1.5901,-1.5899,-1.5898,-1.5899,-1.5909,-1.591,-1.591,-1.5907,-1.5907,-1.5907,0,0,-1.5697,-1.5709,-1.5717,-1.573,-1.5749,-1.5761,-1.5763,-1.5785,-1.5793,-1.5809,-1.5822,-1.5834,-1.5859,-1.5873,-1.5883,-1.5888,-1.5897,-1.5892,-1.5889,-1.5899,-1.5899,-1.5899,-1.5902,-1.5903,-1.5893,-1.5893,-1.5893,0,-1.5688,-1.5706,-1.5721,-1.5732,-1.5742,-1.5758,-1.5768,-1.5779,-1.5802,-1.5809,-1.5812,-1.5844,-1.5858,-1.5878,-1.5879,-1.5887,-1.5891,-1.5889,-1.5897,-1.5898,-1.5898,-1.5902,-1.5902,-1.5892,-1.5893,-1.5893,-1.5893,0,-1.5695,-1.5707,-1.5712,-1.5734,-1.5744,-1.5755,-1.5773,-1.5783,-1.5792,-1.5805,-1.5823,-1.584,-1.586,-1.5865,-1.5875,-1.5887,-1.5888,-1.5894,-1.5898,-1.5898,-1.5901,-1.5902,-1.5892,-1.5892,-1.5892,-1.5892,0,0,-1.568,-1.5711,-1.5713,-1.5723,-1.5746,-1.5757,-1.577,-1.5788,-1.5796,-1.5813,-1.5824,-1.5846,-1.5852,-1.5864,-1.5876,-1.5884,-1.5889,-1.5889,-1.589,-1.5889,-1.5906,-1.5901,-1.5902,-1.5896,-1.5896,-1.5896,-1.5904,0,-1.568,-1.5702,-1.5717,-1.5734,-1.5746,-1.5762,-1.5774,-1.579,-1.5803,-1.5817,-1.5832,-1.5847,-1.5853,-1.5861,-1.587,-1.5886,-1.5893,-1.5886,-1.5908,-1.5909,-1.5903,-1.5904,-1.5898,-1.5905,-1.5906,-1.5906,-1.5906,0,-1.5683,-1.5698,-1.5716,-1.5739,-1.5745,-1.5755,-1.5774,-1.5787,-1.5807,-1.5816,-1.583,-1.5843,-1.5859,-1.5862,-1.5886,-1.5881,-1.5891,-1.5901,-1.5902,-1.5904,-1.5907,-1.5907,-1.5907,-1.5908,-1.5908,-1.5908,-1.5908,0,-1.5671,-1.5696,-1.5711,-1.5719,-1.5747,-1.5754,-1.5766,-1.5785,-1.5796,-1.5814,-1.5822,-1.5842,-1.5853,-1.5869,-1.5887,-1.5887,-1.5909,-1.5914,-1.5919,-1.5918,-1.5922,-1.5922,-1.5925,-1.5929,-1.5929,-1.5929,-1.5929,0,-1.5669,-1.568,-1.5706,-1.5715,-1.5728,-1.5746,-1.5759,-1.5773,-1.5791,-1.5804,-1.5819,-1.5832,-1.5855,-1.5871,-1.5886,-1.5904,-1.5909,-1.5918,-1.5922,-1.5916,-1.5915,-1.5923,-1.5923,-1.5929,-1.5929,-1.5929,-1.5929,0,-1.5658,-1.5675,-1.5692,-1.5718,-1.5724,-1.5733,-1.5755,-1.5766,-1.578,-1.5797,-1.5802,-1.5826,-1.5845,-1.5866,-1.5892,-1.5903,-1.5921,-1.5926,-1.5914,-1.5916,-1.592,-1.592,-1.5929,-1.5931,-1.5933,-1.5933,-1.5933,0,-1.5655,-1.5664,-1.569,-1.57,-1.5711,-1.5727,-1.5738,-1.5758,-1.577,-1.5795,-1.5802,-1.5823,-1.5841,-1.5872,-1.5893,-1.5914,-1.592,-1.5922,-1.5923,-1.5919,-1.5921,-1.5921,-1.5922,-1.5921,-1.5921,-1.5921,-1.5921,0,-1.565,-1.5659,-1.5674,-1.5693,-1.5707,-1.5723,-1.574,-1.5748,-1.5771,-1.5784,-1.5804,-1.5818,-1.5846,-1.5867,-1.5892,-1.5906,-1.5918,-1.592,-1.5923,-1.5917,-1.591,-1.5915,-1.5912,-1.592,-1.592,-1.592,-1.592,-1.592,-1.5643,-1.5652,-1.5672,-1.569,-1.5705,-1.5721,-1.5732,-1.5749,-1.5766,-1.5789,-1.5801,-1.5822,-1.5845,-1.5878,-1.5893,-1.5911,-1.5914,-1.5917,-1.5918,-1.5919,-1.5918,-1.5908,-1.5915,-1.5915,-1.5916,-1.5916,-1.5916,0,-1.5639,-1.5653,-1.5669,-1.5693,-1.5707,-1.5717,-1.5737,-1.5749,-1.5766,-1.5786,-1.5803,-1.5828,-1.585,-1.5873,-1.5896,-1.5907,-1.5913,-1.5912,-1.5912,-1.5915,-1.5913,-1.5909,-1.5907,-1.5907,-1.5907,-1.5907,-1.5907,-1.5907,-1.5638,-1.5654,-1.5666,-1.5691,-1.5706,-1.5725,-1.5736,-1.5752,-1.5768,-1.5794,-1.5812,-1.5827,-1.5849,-1.5875,-1.5896,-1.5903,-1.5911,-1.5909,-1.5917,-1.5914,-1.5915,-1.5916,-1.5912,-1.591,-1.591,-1.5917,-1.5918,-1.5918]},{"header":{"parameterUnit":"m.s-1","parameterCategory":1,"la1":30.2991,"la2":30.254,"lo1":-89.0895,"lo2":-89.0444,"dy":0.0017,"dx":0.0017,"nx":28,"ny":28,"refTime":"2025-07-15T21:00:00:Z","depth":0,"parameterNumber":3,"parameterNumberName":"V-component_of_WINDS"},"data":[0,0,0,0,0,0,0,0,0,0,0,0,0,0,0,0,0,0,0,0,0,0,0,0,0,0,0,0,0,0,0,0,0,0,0,0,0,0,0,0,0,0,0,0,0,0,0,0,0,0,0,0,0,0,0,0,0,0,0.2742,0.2744,0,0.2928,0.293,0.2932,0.2947,0.2945,0.2943,0.2941,0.3136,0.3143,0.315,0,0,0,0,0,0,0,0,0,0,0,0,0,0.2404,0.241,0.2742,0.2744,0.2747,0.2928,0.293,0.2933,0.2947,0.2945,0.2942,0.294,0.3134,0.3142,0.3151,0,0,0,0,0,0,0,0,0,0,0,0,0,0.2567,0.2412,0.2742,0.2776,0.278,0.2927,0.293,0.2933,0.2948,0.2945,0.2942,0.2939,0.3131,0.3141,0.3152,0.3279,0,0,0.3184,0.3189,0,0,0,0,0,0,0,0,0.2557,0.2579,0.2768,0.2774,0.2779,0.2911,0.2883,0.305,0.2948,0.2884,0.2941,0.2937,0.3064,0.308,0.3122,0.3288,0.3296,0.3185,0.3192,0.3196,0.3199,0,0,0,0,0,0,0,0.2546,0.2571,0.2816,0.2771,0.2778,0.2783,0.2803,0.2914,0.2989,0.289,0.2891,0.2913,0.3067,0.3111,0.3126,0.3299,0.3185,0.3195,0.3201,0.3205,0.3578,0.3581,0,0,0,0,0,0,0.2528,0.2562,0.281,0.2821,0.2658,0.2791,0.2814,0.2872,0.2988,0.3003,0.2915,0.2913,0.3095,0.3114,0.3133,0.3288,0.3196,0.3206,0.3212,0.3574,0.3579,0.3583,0,0,0,0,0,0,0.252,0.255,0.2802,0.2692,0.2724,0.2801,0.2866,0.2877,0.2922,0.3007,0.3021,0.2947,0.3093,0.3118,0.3242,0.3295,0.3211,0.3221,0.357,0.3576,0.3581,0.3599,0,0,0,0,0,0,0.2511,0.2547,0.2595,0.2693,0.273,0.2907,0.2869,0.2883,0.294,0.2938,0.3041,0.3055,0.3093,0.3226,0.3253,0.3308,0.3229,0.3566,0.3573,0.3579,0.3594,0.3605,0.3613,0,0,0,0,0,0.2498,0.2594,0.2597,0.2627,0.2792,0.291,0.2931,0.2971,0.2944,0.2993,0.3048,0.3052,0.3285,0.3238,0.3269,0.3328,0.3563,0.3571,0.3578,0.359,0.3603,0.3613,0,0,0,0,0,0,0.2503,0.2608,0.2612,0.2742,0.2817,0.2912,0.2975,0.2984,0.3068,0.3064,0.3112,0.3135,0.3256,0.3305,0.3251,0.3457,0.3421,0.3436,0.342,0.3432,0.3442,0.3427,0.3238,0,0,0,0,0,0.2519,0.2604,0.2692,0.2798,0.2835,0.2899,0.2952,0.2976,0.3056,0.3088,0.3151,0.323,0.3321,0.338,0.3468,0.3602,0.3624,0.3658,0.3668,0.3675,0.3686,0.3759,0.3775,0.3608,0.3608,0.3608,0,0,0.2553,0.2621,0.2672,0.2801,0.2861,0.2949,0.2925,0.302,0.3086,0.3103,0.3222,0.3272,0.3362,0.3491,0.3551,0.3535,0.3737,0.3685,0.369,0.3698,0.3769,0.3785,0.3798,0.3614,0.3613,0.3612,0,0,0.2659,0.272,0.2814,0.2874,0.2965,0.3007,0.3029,0.3123,0.3156,0.3276,0.329,0.3371,0.3527,0.359,0.3643,0.3773,0.3779,0.3801,0.385,0.392,0.3933,0.3945,0.399,0.4005,0.3812,0.3812,0.3812,0,0.269,0.2822,0.2862,0.2955,0.3011,0.3029,0.3125,0.3182,0.3298,0.3337,0.3318,0.3513,0.3576,0.3718,0.375,0.3793,0.382,0.3788,0.3928,0.394,0.3952,0.3995,0.4012,0.3814,0.3814,0.3813,0.3813,0,0.2855,0.2946,0.3012,0.312,0.3184,0.3279,0.3334,0.3394,0.3413,0.3457,0.3579,0.3655,0.3758,0.3794,0.3815,0.394,0.3927,0.3918,0.3883,0.3969,0.401,0.4027,0.3816,0.3816,0.3815,0.3815,0,0,0.2968,0.3097,0.312,0.3169,0.327,0.3342,0.3438,0.3537,0.3587,0.3667,0.3748,0.388,0.3871,0.3931,0.3959,0.4021,0.4117,0.4004,0.4007,0.402,0.4258,0.4262,0.4281,0.4122,0.4125,0.4128,0.4249,0,0.3084,0.3252,0.329,0.3435,0.352,0.3537,0.3621,0.3693,0.3736,0.3815,0.3865,0.3956,0.3939,0.3974,0.4037,0.4091,0.4164,0.4084,0.4198,0.4201,0.4172,0.4302,0.4308,0.4419,0.4266,0.4269,0.4271,0,0.3242,0.3322,0.3474,0.3563,0.36,0.3674,0.3767,0.3843,0.3925,0.3952,0.4018,0.404,0.4141,0.4102,0.4242,0.4186,0.4235,0.4269,0.4275,0.4285,0.4239,0.4315,0.4455,0.4471,0.4297,0.4295,0.4293,0,0.3306,0.3453,0.3563,0.3605,0.3712,0.3763,0.381,0.3889,0.3946,0.4029,0.4066,0.416,0.4211,0.4284,0.433,0.4298,0.4466,0.4431,0.4491,0.449,0.4524,0.4521,0.4672,0.4559,0.4559,0.4559,0.4558,0,0.343,0.3522,0.3593,0.366,0.3764,0.3808,0.391,0.3958,0.4028,0.4105,0.4128,0.4201,0.4259,0.434,0.4378,0.4486,0.451,0.4535,0.4544,0.4532,0.4528,0.4563,0.4556,0.4563,0.4562,0.4561,0.4561,0,0.3519,0.357,0.369,0.3781,0.3806,0.3878,0.3957,0.4024,0.4068,0.4165,0.4191,0.4261,0.4357,0.4411,0.4534,0.4559,0.4679,0.4685,0.4651,0.4654,0.471,0.4703,0.4887,0.4913,0.4785,0.4786,0.4787,0,0.3593,0.3664,0.3762,0.3814,0.3862,0.3947,0.4004,0.4051,0.411,0.4208,0.4263,0.436,0.444,0.4593,0.4656,0.4749,0.4756,0.4814,0.477,0.4756,0.4754,0.4748,0.4755,0.4821,0.4822,0.4823,0.4824,0,0.372,0.3741,0.3822,0.3911,0.3978,0.4052,0.4124,0.4167,0.4226,0.4291,0.4388,0.445,0.4574,0.467,0.4768,0.4818,0.4831,0.4838,0.4856,0.4843,0.4819,0.4831,0.4669,0.4833,0.4832,0.4831,0.4831,0.483,0.3802,0.3865,0.3943,0.4032,0.4091,0.4158,0.4224,0.4276,0.4358,0.446,0.4484,0.4586,0.4667,0.4799,0.4852,0.4934,0.4923,0.495,0.4957,0.4962,0.4963,0.4808,0.4952,0.4952,0.4952,0.4952,0.4952,0,0.3927,0.3978,0.4059,0.4159,0.4229,0.4234,0.4315,0.4373,0.4462,0.4535,0.4613,0.4725,0.4818,0.4887,0.4983,0.5035,0.5043,0.5058,0.5054,0.5065,0.4968,0.4941,0.505,0.505,0.505,0.505,0.505,0.505,0.4,0.4106,0.4137,0.4273,0.4324,0.4422,0.4468,0.453,0.4588,0.4711,0.4788,0.4832,0.4904,0.5005,0.5091,0.5109,0.5142,0.5156,0.5175,0.5083,0.5072,0.5062,0.5037,0.5163,0.5164,0.5265,0.5266,0.5266]}]]